Weather Roundup
Issued by NWS

Home | Current Version | Previous Version | Graphics & Text | Print | Product List | Glossary Off
Versions: 1 2 3 4 5 6 7 8 9 10 11 12 13 14 15 16 17 18 19 20 21 22 23 24 25 26 27 28 29 30 31 32 33 34 35 36 37 38 39 40 41 42 43 44 45 46 47 48 49 50

000
NZUS93 KARX 050059
HRRWXR

CURRENT HOURLY OBSERVATIONS ACROSS
MUCH OF THE UPPER MISSISSIPPI VALLEY
NATIONAL WEATHER SERVICE LA CROSSE WI
800 PM CDT SAT JUL 04 2015


...SOUTHEAST MINNESOTA...


CITY           SKY/WX    TMP DP  RH WIND       PRES   REMARKS
ROCHESTER      CLEAR     74  63  68 S8        29.96S
ROCHESTER/MAYO FAIR      77  61  59 S8        29.95S
WINONA         CLEAR     77  63  61 CALM      29.93S
AUSTIN         CLEAR     75  61  60 S3        29.94F
ALBERT LEA     PTCLDY    75  57  53 S5        29.93F
DODGE CENTER   CLEAR     73  64  73 S7        29.94F
PRESTON        CLEAR     73  63  71 S5        29.97S
OWATONNA       CLEAR     77  63  61 S6        29.93S
FARIBAULT      CLEAR     77  64  65 MISG      29.92S
$$

...ELSEWHERE IN MINNESOTA...


CITY           SKY/WX    TMP DP  RH WIND       PRES   REMARKS
MINNEAPOLIS    CLEAR     81  64  56 S9        29.89S HAZE
INTNL FALLS    SUNNY     75  59  57 CALM      29.81R
DULUTH         CLEAR     67  57  70 SE9       29.90F
RED WING       CLEAR     81  64  57 S6        29.89S
REDWOOD FALLS  PTCLDY    80  62  54 S10       29.86F HAZE
MANKATO        PTCLDY    77  63  61 S9        29.90F
WORTHINGTON    CLEAR     75  61  60 S9        29.90F
FAIRMONT       PTCLDY    75  57  53 S8        29.91F
$$

...SOUTHWEST WISCONSIN...


CITY           SKY/WX    TMP DP  RH WIND       PRES   REMARKS
LA CROSSE      CLEAR     79  64  60 S7        29.93S
PRAIRIE DU CHI CLEAR     77  60  55 CALM      29.96S
BOSCOBEL       CLEAR     77  64  64 CALM      29.96S
LONE ROCK      NOT AVBL
PLATTEVILLE    CLEAR     76  62  62 CALM      29.99R
FORT MC COY    CLEAR     78  63  59 S3        29.96R
VIROQUA        FAIR      75  65  69 S3        29.98S
WIS DELLS      CLEAR     75  61  62 SW6       29.97S
$$

...ELSEWHERE IN WISCONSIN...


CITY           SKY/WX    TMP DP  RH WIND       PRES   REMARKS
MILWAUKEE      MOCLDY    73  58  59 S9        29.98S
MADISON        PTCLDY    78  61  55 CALM      29.97S
GREEN BAY      PTCLDY    74  63  68 SE6       29.96S
EAU CLAIRE     NOT AVBL
BLACK RVR FLS  FAIR      78  63  59 SW3       29.94S
MEDFORD        PTCLDY    76  63  63 S7        29.95S
WAUSAU         PTCLDY    77  63  61 CALM      29.94R HAZE
WIS RAPIDS     PTCLDY    77  63  61 SW7       29.96S
MARSHFIELD     PTCLDY    77  62  59 SW5       29.95S HAZE
RICE LAKE      CLEAR     78  64  62 S6        29.93S HAZE
$$

...NORTHEAST IOWA...


CITY           SKY/WX    TMP DP  RH WIND       PRES   REMARKS
DECORAH          N/A    N/A N/A N/A MISG        N/A
MASON CITY     PTCLDY    73  63  70 S7        29.96S
CHARLES CITY   CLEAR     73  66  78 SE6       29.96F
OELWEIN        CLEAR     75  64  69 S5        29.98S
$$

...ELSEWHERE IN IOWA...


CITY           SKY/WX    TMP DP  RH WIND       PRES   REMARKS
DES MOINES     CLOUDY    79  60  52 SE7       29.94F
IOWA CITY      CLEAR     75  62  64 SE5       29.98S
FORT DODGE     CLEAR     77  59  53 S6        29.94F
$$

...NORTHERN ILLINOIS...


CITY           SKY/WX    TMP DP  RH WIND       PRES   REMARKS
CHICAGO-OHARE  CLEAR     75  57  53 E8        29.98R
CHICAGO-MIDWAY CLEAR     76  58  53 E8        29.99R
MOLINE         CLEAR     76  63  64 CALM      29.98R
ROCKFORD       PTCLDY    76  61  59 W3        30.00S
PEORIA         CLEAR     78  62  57 CALM      29.99R
$$

NOTE: "FAIR" INDICATES FEW OR NO CLOUDS BELOW 12,000 FEET WITH NO
SIGNIFICANT WEATHER AND/OR OBSTRUCTIONS TO VISIBILITY. WIND
SPEEDS ARE IN MILES-PER-HOUR.



USA.gov is the U.S. government's official web portal to all federal, state and local government web resources and services.